Location: Godiavel Galaoual
(15.2485°N, 12.6604°W)
Time: 01:50:34
(UTC+00:00)

Explorer 7 - Pass Details

Date: 17 June 2021
Orbit: 484 x 676 km, 50.3° (Epoch: 29 July)

Event Time Altitude Azimuth Distance (km) Brightness Sun altitude
Rises 21:57:03 0° 266° (W) 3,002 11.2 -32.4°
Reaches altitude 10° 22:01:27 10° 304° (WNW) 2,101 10.6 -33.2°
Maximum altitude 22:02:37 11° 318° (NW) 2,049 10.5 -33.4°
Drops below altitude 10° 22:03:48 10° 332° (NNW) 2,101 10.5 -33.6°
Sets 22:08:13 0° 9° (N) 3,001 11.0 -34.4°
